| time (UTC) | temp C | wind direction | speed KPH | gust KPH | rain 1hr cm | rain 24hr cm | rain mn cm | humidity % | barometer mb |
| 20260503184551 | 18 | 25 | 16.1 | 33.8 | 0.00 | 0.00 | 0.00 | 20 | 1005.2 |
| 20260503183049 | 18 | 360 | 22.5 | 38.6 | 0.00 | 0.00 | 0.00 | 20 | 1005.3 |
| 20260503181559 | 18 | 349 | 17.7 | 35.4 | 0.00 | 0.00 | 0.00 | 25 | 1005.3 |
| 20260503180047 | 18 | 317 | 16.1 | 29.0 | 0.00 | 0.00 | 0.00 | 30 | 1005.3 |
| 20260503174544 | 17 | 316 | 14.5 | 27.4 | 0.00 | 0.00 | 0.00 | 30 | 1005.6 |
| 20260503173053 | 17 | 310 | 16.1 | 35.4 | 0.00 | 0.00 | 0.00 | 27 | 1005.6 |
| 20260503171540 | 17 | 329 | 17.7 | 32.2 | 0.00 | 0.00 | 0.00 | 27 | 1005.6 |
| 20260503081540 | 10 | 167 | 3.2 | 9.7 | 0.00 | 0.00 | 0.00 | 60 | 1004.3 |
| 20260503071531 | 11 | 55 | 6.4 | 11.3 | 0.00 | 0.00 | 0.00 | 55 | 1004.8 |
| 20260503054517 | 12 | 157 | 11.3 | 22.5 | 0.00 | 0.00 | 0.00 | 50 | 1005.6 |
| 20260503053013 | 12 | 175 | 11.3 | 24.1 | 0.00 | 0.00 | 0.00 | 51 | 1005.9 |
| 20260503051509 | 12 | 159 | 8.0 | 12.9 | 0.00 | 0.00 | 0.00 | 50 | 1006.0 |
| 20260503050006 | 12 | 165 | 4.8 | 11.3 | 0.00 | 0.00 | 0.00 | 50 | 1006.2 |
| 20260503044504 | 12 | 157 | 3.2 | 11.3 | 0.00 | 0.00 | 0.00 | 50 | 1006.4 |
| 20260503043002 | 13 | 127 | 4.8 | 12.9 | 0.00 | 0.00 | 0.00 | 50 | 1006.6 |
| 20260503041613 | 13 | 149 | 3.2 | 11.3 | 0.00 | 0.00 | 0.00 | 48 | 1006.9 |
| 20260503040106 | 13 | 131 | 3.2 | 9.7 | 0.00 | 0.00 | 0.00 | 48 | 1007.2 |
| 20260503034556 | 13 | 119 | 3.2 | 12.9 | 0.00 | 0.00 | 0.00 | 46 | 1007.4 |
| 20260503033107 | 13 | 134 | 4.8 | 11.3 | 0.00 | 0.00 | 0.00 | 46 | 1007.5 |
| 20260503031555 | 14 | 168 | 3.2 | 11.3 | 0.00 | 0.00 | 0.00 | 45 | 1007.9 |
| 20260503030052 | 15 | 169 | 4.8 | 11.3 | 0.00 | 0.00 | 0.00 | 43 | 1008.1 |
| 20260503024552 | 15 | 164 | 1.6 | 11.3 | 0.00 | 0.00 | 0.00 | 42 | 1008.5 |
| 20260503023057 | 15 | 175 | 4.8 | 11.3 | 0.00 | 0.00 | 0.00 | 40 | 1008.8 |
| 20260503021550 | 15 | 249 | 6.4 | 11.3 | 0.00 | 0.00 | 0.00 | 39 | 1008.9 |
| 20260503020045 | 16 | 246 | 9.7 | 19.3 | 0.00 | 0.00 | 0.00 | 38 | 1009.0 |
| 20260503014545 | 16 | 246 | 11.3 | 22.5 | 0.00 | 0.00 | 0.00 | 36 | 1008.9 |
| 20260503013045 | 16 | 273 | 12.9 | 25.7 | 0.00 | 0.00 | 0.00 | 37 | 1009.0 |
| 20260503011558 | 16 | 246 | 4.8 | 16.1 | 0.00 | 0.00 | 0.00 | 39 | 1009.0 |
| 20260503010052 | 16 | 219 | 3.2 | 6.4 | 0.00 | 0.00 | 0.00 | 39 | 1008.9 |
| 20260503004543 | 16 | 181 | 6.4 | 14.5 | 0.00 | 0.00 | 0.00 | 39 | 1008.9 |
| 20260503003057 | 16 | 201 | 6.4 | 11.3 | 0.00 | 0.00 | 0.00 | 39 | 1009.1 |
| 20260503001541 | 16 | 200 | 6.4 | 14.5 | 0.00 | 0.00 | 0.00 | 38 | 1009.1 |
| 20260503000057 | 16 | 238 | 8.0 | 16.1 | 0.00 | 0.00 | 0.00 | 36 | 1009.3 |
| 20260502234538 | 16 | 254 | 9.7 | 20.9 | 0.00 | 0.00 | 0.00 | 37 | 1009.6 |
| 20260502233038 | 17 | 223 | 16.1 | 32.2 | 0.00 | 0.00 | 0.00 | 36 | 1009.7 |
| 20260502231540 | 17 | 231 | 6.4 | 24.1 | 0.00 | 0.00 | 0.00 | 35 | 1009.8 |
| 20260502230033 | 17 | 202 | 16.1 | 25.7 | 0.00 | 0.00 | 0.00 | 34 | 1009.9 |
| 20260502224532 | 17 | 196 | 9.7 | 22.5 | 0.00 | 0.00 | 0.00 | 34 | 1009.9 |
| 20260502223031 | 17 | 180 | 14.5 | 22.5 | 0.00 | 0.00 | 0.00 | 33 | 1010.2 |
| 20260502221530 | 17 | 195 | 6.4 | 16.1 | 0.00 | 0.00 | 0.00 | 33 | 1010.3 |
| 20260502220030 | 17 | 215 | 6.4 | 16.1 | 0.00 | 0.00 | 0.00 | 34 | 1010.3 |
| 20260502214526 | 17 | 188 | 14.5 | 22.5 | 0.00 | 0.00 | 0.00 | 33 | 1010.5 |
| 20260502213029 | 17 | 190 | 12.9 | 19.3 | 0.00 | 0.00 | 0.00 | 34 | 1010.7 |
| 20260502211523 | 16 | 174 | 11.3 | 22.5 | 0.00 | 0.00 | 0.00 | 33 | 1010.9 |
| 20260502210021 | 16 | 188 | 8.0 | 25.7 | 0.00 | 0.00 | 0.00 | 34 | 1011.2 |
| 20260502204524 | 16 | 203 | 9.7 | 37.0 | 0.00 | 0.00 | 0.00 | 34 | 1011.6 |
| 20260502203019 | 16 | 309 | 8.0 | 25.7 | 0.00 | 0.00 | 0.00 | 33 | 1011.9 |
| 20260502201517 | 16 | 195 | 11.3 | 27.4 | 0.00 | 0.00 | 0.00 | 34 | 1012.2 |
| 20260502200011 | 16 | 216 | 16.1 | 35.4 | 0.00 | 0.00 | 0.00 | 34 | 1012.7 |
| 20260502194510 | 16 | 242 | 14.5 | 27.4 | 0.00 | 0.00 | 0.00 | 33 | 1012.9 |
| 20260502193008 | 16 | 202 | 14.5 | 32.2 | 0.00 | 0.00 | 0.00 | 35 | 1013.1 |
| 20260502191511 | 16 | 189 | 16.1 | 30.6 | 0.00 | 0.00 | 0.00 | 33 | 1013.5 |
| 20260502190005 | 15 | 178 | 16.1 | 37.0 | 0.00 | 0.00 | 0.00 | 35 | 1013.8 |